DW6558 Weather Reports


time (UTC)temp
C
wind
direction
speed
KPH
gust
KPH
rain 1hr
cm
rain 24hr
cm
rain mn
cm
humidity
%
barometer
mb
20260902185026 23 253 17.7 32.2 0.00 0.00 0.00 35 931.9
20260902184521 22 199 19.3 33.8 0.00 0.00 0.00 35 932.4
20260902184016 22 201 14.5 27.4 0.00 0.00 0.00 37 932.0
20260902183513 22 206 11.3 27.4 0.00 0.00 0.00 37 932.4
20260902183009 22 246 8.0 32.2 0.00 0.00 0.00 39 932.3
20260902182504 22 188 25.7 33.8 0.00 0.00 0.00 37 932.4
20260902182000 22 194 9.7 24.1 0.00 0.00 0.00 37 932.6
20260902181456 22 279 12.9 24.1 0.00 0.00 0.00 37 932.5
20260902180950 22 200 14.5 37.0 0.00 0.00 0.00 36 932.3
20260902180445 22 214 17.7 27.4 0.00 0.00 0.00 37 932.5
20260902175941 22 177 24.1 38.6 0.00 0.00 0.00 36 932.6
20260902175441 22 244 24.1 33.8 0.00 0.00 0.00 37 932.4
20260902174937 22 150 16.1 27.4 0.00 0.00 0.00 37 932.8
20260902174434 22 213 16.1 25.7 0.00 0.00 0.00 37 932.6
20260902173929 21 278 16.1 20.9 0.00 0.00 0.00 38 933.1
20260902173428 21 251 16.1 29.0 0.00 0.00 0.00 38 933.4
20260902172923 21 226 17.7 29.0 0.00 0.00 0.00 37 933.2
20260902172423 22 249 16.1 25.7 0.00 0.00 0.00 38 932.9
20260902171918 22 252 20.9 33.8 0.00 0.00 0.00 38 932.7
20260902171413 22 241 12.9 16.1 0.00 0.00 0.00 38 932.6
20260902170909 22 183 16.1 25.7 0.00 0.00 0.00 38 932.6
20260902170404 22 254 17.7 25.7 0.00 0.00 0.00 39 932.6
20260902165900 21 287 11.3 29.0 0.00 0.00 0.00 40 932.5
20260902165359 21 211 9.7 22.5 0.00 0.00 0.00 41 932.7
20260902164854 21 177 11.3 22.5 0.00 0.00 0.00 40 933.1
20260902164349 21 249 16.1 22.5 0.00 0.00 0.00 40 932.8
20260902163848 20 175 8.0 20.9 0.00 0.00 0.00 43 932.9
20260902163343 20 295 4.8 22.5 0.00 0.00 0.00 44 933.1
20260902162841 21 183 0.0 17.7 0.00 0.00 0.00 42 933.3
20260902162336 20 212 14.5 20.9 0.00 0.00 0.00 45 932.8
20260902161831 20 102 4.8 16.1 0.00 0.00 0.00 45 933.1
20260902161327 20 213 14.5 22.5 0.00 0.00 0.00 45 932.9
20260902160823 20 221 14.5 17.7 0.00 0.00 0.00 45 932.8
20260902160318 20 183 9.7 20.9 0.00 0.00 0.00 47 932.9
20260902155816 20 229 12.9 29.0 0.00 0.00 0.00 47 933.1
20260902155315 19 155 6.4 25.7 0.00 0.00 0.00 49 932.9
20260902154810 19 200 9.7 33.8 0.00 0.00 0.00 51 933.2
20260902154306 18 189 6.4 12.9 0.00 0.00 0.00 53 933.4
20260902153804 18 191 12.9 20.9 0.00 0.00 0.00 53 933.5
20260902153259 18 210 4.8 16.1 0.00 0.00 0.00 56 933.4
20260902152755 17 187 8.0 9.7 0.00 0.00 0.00 57 933.4
20260902152251 17 227 11.3 17.7 0.00 0.00 0.00 57 933.5
20260902151751 16 213 8.0 14.5 0.00 0.00 0.00 59 933.3
20260902151246 16 150 4.8 12.9 0.00 0.00 0.00 62 933.4
20260902150745 16 191 9.7 14.5 0.00 0.00 0.00 62 933.5
20260902150242 15 226 9.7 20.9 0.00 0.00 0.00 67 933.5
20260902145741 15 63 1.6 3.2 0.00 0.00 0.00 69 933.4
20260902145237 15 40 0.0 1.6 0.00 0.00 0.00 71 933.5
20260902144732 14 60 1.6 4.8 0.00 0.00 0.00 71 933.6
20260902144228 13 67 0.0 0.0 0.00 0.00 0.00 72 933.6
20260902143723 13 133 0.0 0.0 0.00 0.00 0.00 72 933.4
20260902143218 13 42 0.0 0.0 0.00 0.00 0.00 71 933.6
20260902142714 13 50 0.0 1.6 0.00 0.00 0.00 71 933.7
20260902142209 13 50 0.0 4.8 0.00 0.00 0.00 71 933.7
20260902141709 14 90 4.8 4.8 0.00 0.00 0.00 70 933.9
20260902141205 13 37 0.0 0.0 0.00 0.00 0.00 71 934.2
20260902140701 12 73 1.6 4.8 0.00 0.00 0.00 75 934.1
20260902140200 12 51 0.0 0.0 0.00 0.00 0.00 77 934.2
20260902135700 12 54 0.0 0.0 0.00 0.00 0.00 78 934.1
20260902135155 11 44 0.0 0.0 0.00 0.00 0.00 78 934.0
20260902134650 11 73 3.2 4.8 0.00 0.00 0.00 79 933.7
20260902134150 11 81 0.0 0.0 0.00 0.00 0.00 78 932.9
20260902133645 11 63 0.0 0.0 0.00 0.00 0.00 78 933.1
20260902133140 11 64 1.6 3.2 0.00 0.00 0.00 80 933.2
20260902132635 10 8 1.6 3.2 0.00 0.00 0.00 82 932.6
20260902132131 10 40 0.0 0.0 0.00 0.00 0.00 82 932.4
20260902131626 10 85 3.2 3.2 0.00 0.00 0.00 82 932.4
20260902131121 10 70 0.0 3.2 0.00 0.00 0.00 82 932.4
20260902130617 10 44 0.0 3.2 0.00 0.00 0.00 81 932.1
20260902130117 10 33 0.0 0.0 0.00 0.00 0.00 81 931.9
20260902125613 10 62 1.6 3.2 0.00 0.00 0.00 80 932.0
20260902125108 10 92 4.8 9.7 0.00 0.00 0.00 80 931.8
20260902124606 10 87 6.4 8.0 0.00 0.00 0.00 80 932.0
20260902124105 10 56 1.6 3.2 0.00 0.00 0.00 80 931.9
20260902123601 10 89 6.4 9.7 0.00 0.00 0.00 80 932.1
20260902123055 10 113 1.6 4.8 0.00 0.00 0.00 81 932.0
20260902122549 10 52 3.2 4.8 0.00 0.00 0.00 81 932.1
20260902122045 10 58 3.2 8.0 0.00 0.00 0.00 80 932.0
20260902121540 10 120 6.4 9.7 0.00 0.00 0.00 80 932.1
20260902121035 10 58 1.6 4.8 0.00 0.00 0.00 82 932.1
20260902120531 10 87 1.6 4.8 0.00 0.00 0.00 82 932.3
20260902120027 10 136 3.2 4.8 0.00 0.00 0.00 82 932.4
20260902115522 10 109 0.0 4.8 0.00 0.00 0.00 81 932.1
20260902115018 10 71 4.8 8.0 0.00 0.00 0.00 81 932.3
20260902114513 10 125 4.8 4.8 0.00 0.00 0.00 81 932.4
20260902114013 10 47 1.6 3.2 0.00 0.00 0.00 81 932.5
20260902113509 10 56 1.6 4.8 0.00 0.00 0.00 81 932.5
20260902113004 10 42 0.0 0.0 0.00 0.00 0.00 81 932.3
20260902112459 10 65 1.6 1.6 0.00 0.00 0.00 81 932.4
20260902111955 10 76 3.2 8.0 0.00 0.00 0.00 82 932.3
20260902111452 10 61 0.0 3.2 0.00 0.00 0.00 82 932.5
20260902110947 10 60 0.0 0.0 0.00 0.00 0.00 82 932.5
20260902110443 10 70 3.2 3.2 0.00 0.00 0.00 83 932.3
20260902105937 10 61 0.0 1.6 0.00 0.00 0.00 82 932.3
20260902105432 10 52 0.0 0.0 0.00 0.00 0.00 81 932.5
20260902104927 10 60 1.6 4.8 0.00 0.00 0.00 80 932.1
20260902104423 10 91 6.4 8.0 0.00 0.00 0.00 81 932.3
20260902103922 10 90 4.8 4.8 0.00 0.00 0.00 81 932.1
20260902103418 10 90 4.8 4.8 0.00 0.00 0.00 82 932.3
20260902102913 10 90 3.2 4.8 0.00 0.00 0.00 82 932.3
20260902102410 10 76 0.0 0.0 0.00 0.00 0.00 82 932.0
20260902101906 10 75 0.0 0.0 0.00 0.00 0.00 82 932.3
20260902101400 10 55 0.0 0.0 0.00 0.00 0.00 83 932.0
20260902100900 10 48 0.0 0.0 0.00 0.00 0.00 83 931.9
20260902100359 10 48 0.0 0.0 0.00 0.00 0.00 83 932.3
20260902095855 10 45 0.0 0.0 0.00 0.00 0.00 82 932.0
20260902095355 10 46 0.0 0.0 0.00 0.00 0.00 81 932.3
20260902094854 11 46 0.0 0.0 0.00 0.00 0.00 80 932.3
20260902094351 11 47 0.0 0.0 0.00 0.00 0.00 79 932.5
20260902093850 11 67 1.6 3.2 0.00 0.00 0.00 78 932.5
20260902093345 12 44 0.0 3.2 0.00 0.00 0.00 77 932.6
20260902092844 12 59 1.6 4.8 0.00 0.00 0.00 77 932.4
20260902092335 12 72 4.8 4.8 0.00 0.00 0.00 78 932.6
20260902091834 12 52 0.0 3.2 0.00 0.00 0.00 79 932.3
20260902091330 11 34 0.0 0.0 0.00 0.00 0.00 79 932.5
20260902090827 11 42 0.0 0.0 0.00 0.00 0.00 80 932.4
20260902090326 11 40 0.0 0.0 0.00 0.00 0.00 80 932.4
20260902085825 11 40 0.0 0.0 0.00 0.00 0.00 80 932.3
20260902085320 11 39 0.0 0.0 0.00 0.00 0.00 79 932.4
20260902084816 11 44 0.0 0.0 0.00 0.00 0.00 79 932.5
20260902084313 11 43 0.0 0.0 0.00 0.00 0.00 79 932.5
20260902083807 12 61 0.0 0.0 0.00 0.00 0.00 78 932.4
20260902083307 12 79 3.2 3.2 0.00 0.00 0.00 78 932.1
20260902082802 12 70 0.0 1.6 0.00 0.00 0.00 78 932.7
20260902082259 12 25 0.0 0.0 0.00 0.00 0.00 77 932.5
20260902081755 12 17 0.0 0.0 0.00 0.00 0.00 76 932.4
20260902081250 12 73 0.0 0.0 0.00 0.00 0.00 76 932.5
20260902080745 12 75 0.0 0.0 0.00 0.00 0.00 76 932.4
20260902080242 12 52 0.0 3.2 0.00 0.00 0.00 76 932.3
20260902075741 12 83 0.0 8.0 0.00 0.00 0.00 78 932.3
20260902075238 12 69 0.0 0.0 0.00 0.00 0.00 79 932.0
20260902074737 12 54 0.0 3.2 0.00 0.00 0.00 78 932.3
20260902074233 12 87 0.0 1.6 0.00 0.00 0.00 78 932.4
20260902073728 13 95 8.0 9.7 0.00 0.00 0.00 77 932.3
20260902073224 13 92 4.8 9.7 0.00 0.00 0.00 77 932.0
20260902072720 13 85 0.0 0.0 0.00 0.00 0.00 76 932.3
20260902072216 13 66 0.0 0.0 0.00 0.00 0.00 76 932.6
20260902071712 13 79 0.0 0.0 0.00 0.00 0.00 75 932.5
20260902071207 13 84 0.0 0.0 0.00 0.00 0.00 76 932.5
20260902070703 13 71 0.0 3.2 0.00 0.00 0.00 77 932.1
20260902070202 13 119 0.0 1.6 0.00 0.00 0.00 77 932.4
20260902065701 13 113 1.6 4.8 0.00 0.00 0.00 77 932.1
20260902065157 13 120 3.2 4.8 0.00 0.00 0.00 76 932.3
20260902064652 13 119 0.0 0.0 0.00 0.00 0.00 76 932.1
20260902064148 13 60 0.0 0.0 0.00 0.00 0.00 75 931.9
20260902063643 13 127 3.2 4.8 0.00 0.00 0.00 75 932.1
20260902063138 13 63 0.0 0.0 0.00 0.00 0.00 76 932.1
20260902062637 13 46 0.0 0.0 0.00 0.00 0.00 76 931.9
20260902062132 13 49 0.0 0.0 0.00 0.00 0.00 76 931.9
20260902061631 13 52 0.0 3.2 0.00 0.00 0.00 76 932.0
20260902061127 13 37 0.0 0.0 0.00 0.00 0.00 77 932.1
20260902060624 13 44 0.0 0.0 0.00 0.00 0.00 77 932.0
20260902060120 13 89 1.6 3.2 0.00 0.00 0.00 77 932.1
20260902055615 13 63 0.0 1.6 0.00 0.00 0.00 76 932.1
20260902055111 13 30 0.0 0.0 0.00 0.00 0.00 76 932.0
20260902054605 13 27 0.0 0.0 0.00 0.00 0.00 75 931.9
20260902054102 13 43 0.0 0.0 0.00 0.00 0.00 75 932.1
20260902053557 13 8 0.0 4.8 0.00 0.00 0.00 74 932.3
20260902053051 14 39 0.0 0.0 0.00 0.00 0.00 73 932.4
20260902052551 14 42 0.0 0.0 0.00 0.00 0.00 72 932.3
20260902052047 15 45 0.0 1.6 0.00 0.00 0.00 71 932.4
20260902051546 15 11 3.2 3.2 0.00 0.00 0.00 71 932.3
20260902051045 15 83 1.6 1.6 0.00 0.00 0.00 71 932.3
20260902050540 15 114 0.0 3.2 0.00 0.00 0.00 70 932.4
20260902050035 15 107 0.0 8.0 0.00 0.00 0.00 69 932.6
20260902045531 15 96 0.0 0.0 0.00 0.00 0.00 67 932.8
20260902045028 15 96 0.0 0.0 0.00 0.00 0.00 68 932.9
20260902044527 15 318 1.6 4.8 0.00 0.00 0.00 67 932.7
20260902044023 15 19 0.0 0.0 0.00 0.00 0.00 69 932.1
20260902043519 15 90 0.0 9.7 0.00 0.00 0.00 70 932.1
20260902043018 15 86 1.6 8.0 0.00 0.00 0.00 70 932.1
20260902042518 15 96 0.0 3.2 0.00 0.00 0.00 71 932.3
20260902042013 15 64 0.0 0.0 0.00 0.00 0.00 70 932.0
20260902041508 15 70 0.0 4.8 0.00 0.00 0.00 70 932.4
20260902041003 15 48 0.0 0.0 0.00 0.00 0.00 70 932.6
20260902040502 15 29 0.0 0.0 0.00 0.00 0.00 69 932.6
20260902040001 15 46 0.0 0.0 0.00 0.00 0.00 68 932.5
20260902035456 16 70 3.2 4.8 0.00 0.00 0.00 67 932.4
20260902034957 16 2 0.0 3.2 0.00 0.00 0.00 66 932.1
20260902034457 16 350 0.0 8.0 0.00 0.00 0.00 67 932.1
20260902033956 16 31 0.0 4.8 0.00 0.00 0.00 66 932.3
20260902033455 16 105 0.0 0.0 0.00 0.00 0.00 67 932.3
20260902032954 16 15 1.6 3.2 0.00 0.00 0.00 67 931.9
20260902032449 15 7 0.0 0.0 0.00 0.00 0.00 69 931.6
20260902031944 15 21 0.0 0.0 0.00 0.00 0.00 69 931.1
20260902031439 15 45 0.0 0.0 0.00 0.00 0.00 69 931.0
20260902030936 16 61 0.0 0.0 0.00 0.00 0.00 69 931.0
20260902030430 16 57 0.0 0.0 0.00 0.00 0.00 68 930.9
20260902025929 16 45 0.0 0.0 0.00 0.00 0.00 67 930.7
20260902025425 16 48 0.0 0.0 0.00 0.00 0.00 67 930.8
20260902024920 16 53 0.0 0.0 0.00 0.00 0.00 67 931.0
20260902024415 16 92 0.0 0.0 0.00 0.00 0.00 67 931.8
20260902023910 16 42 0.0 0.0 0.00 0.00 0.00 67 931.9
20260902023406 16 39 0.0 4.8 0.00 0.00 0.00 66 932.0
20260902022905 16 117 0.0 8.0 0.00 0.00 0.00 66 932.1
20260902022400 16 90 4.8 9.7 0.00 0.00 0.00 65 931.9
20260902021857 17 117 4.8 8.0 0.00 0.00 0.00 65 931.8
20260902021356 17 93 0.0 0.0 0.00 0.00 0.00 63 931.9
20260902020852 17 92 1.6 1.6 0.00 0.00 0.00 62 931.8
20260902020348 17 75 0.0 0.0 0.00 0.00 0.00 62 931.7
20260902015843 18 48 0.0 4.8 0.00 0.00 0.00 60 931.7
20260902015338 19 83 0.0 3.2 0.00 0.00 0.00 56 931.8
20260902014834 20 93 1.6 16.1 0.00 0.00 0.00 53 931.8
20260902014331 20 131 6.4 14.5 0.00 0.00 0.00 52 931.8
20260902013829 20 146 3.2 12.9 0.00 0.00 0.00 52 932.0
20260902013325 20 198 9.7 14.5 0.00 0.00 0.00 52 932.0
20260902012820 20 156 3.2 11.3 0.00 0.00 0.00 51 932.0
20260902012316 21 46 8.0 14.5 0.00 0.00 0.00 50 931.8
20260902011811 21 150 8.0 16.1 0.00 0.00 0.00 48 931.8
20260902011306 22 300 6.4 14.5 0.00 0.00 0.00 40 932.0
20260902010805 22 263 6.4 11.3 0.00 0.00 0.00 39 932.1
20260902010301 22 218 8.0 16.1 0.00 0.00 0.00 38 932.0
20260902005759 22 230 9.7 22.5 0.00 0.00 0.00 38 932.3
20260902005255 22 289 3.2 8.0 0.00 0.00 0.00 37 932.5
20260902004755 23 219 6.4 14.5 0.00 0.00 0.00 38 932.4
20260902004250 23 215 6.4 14.5 0.00 0.00 0.00 36 932.3
20260902003744 23 154 8.0 14.5 0.00 0.00 0.00 38 932.4
20260902003240 23 223 8.0 16.1 0.00 0.00 0.00 37 932.3
20260902002736 23 196 8.0 11.3 0.00 0.00 0.00 37 932.3
20260902002235 23 222 8.0 16.1 0.00 0.00 0.00 36 932.4
20260902001731 23 166 11.3 17.7 0.00 0.00 0.00 36 932.6
20260902001231 23 286 4.8 8.0 0.00 0.00 0.00 36 932.7
20260902000726 23 247 6.4 12.9 0.00 0.00 0.00 36 932.6
20260902000221 23 238 9.7 16.1 0.00 0.00 0.00 37 932.9
20260901235721 23 233 4.8 4.8 0.00 0.00 0.00 38 933.1
20260901235216 23 281 9.7 17.7 0.00 0.00 0.00 37 932.8
20260901234715 24 192 9.7 17.7 0.00 0.00 0.00 36 933.1
20260901234210 24 244 9.7 20.9 0.00 0.00 0.00 36 932.9
20260901233710 23 221 12.9 24.1 0.00 0.00 0.00 35 933.1
20260901233206 24 271 14.5 24.1 0.00 0.00 0.00 34 932.8
20260901232701 24 188 12.9 27.4 0.00 0.00 0.00 34 932.9
20260901232156 25 248 11.3 16.1 0.00 0.00 0.00 34 932.8
20260901231653 25 296 4.8 20.9 0.00 0.00 0.00 34 932.8
20260901231148 24 230 11.3 20.9 0.00 0.00 0.00 33 932.7
20260901230639 23 210 6.4 20.9 0.00 0.00 0.00 35 932.8
20260901230139 24 121 11.3 20.9 0.00 0.00 0.00 35 932.5
20260901225633 23 136 3.2 17.7 0.00 0.00 0.00 36 932.8
20260901225128 25 225 11.3 17.7 0.00 0.00 0.00 35 932.7
20260901224624 25 215 11.3 17.7 0.00 0.00 0.00 35 932.7
20260901224120 25 236 9.7 14.5 0.00 0.00 0.00 35 932.8
20260901223615 23 186 8.0 12.9 0.00 0.00 0.00 36 933.1
20260901223110 23 197 12.9 27.4 0.00 0.00 0.00 36 933.1
20260901222607 23 182 9.7 20.9 0.00 0.00 0.00 37 933.2
20260901222102 24 182 6.4 12.9 0.00 0.00 0.00 36 933.3
20260901221558 24 226 11.3 16.1 0.00 0.00 0.00 38 933.5
20260901221054 23 252 8.0 16.1 0.00 0.00 0.00 40 933.6
20260901220553 24 247 14.5 16.1 0.00 0.00 0.00 39 933.6
20260901220052 24 237 8.0 17.7 0.00 0.00 0.00 39 933.5
20260901215550 24 210 16.1 22.5 0.00 0.00 0.00 39 933.6
20260901215045 23 264 9.7 16.1 0.00 0.00 0.00 42 933.6
20260901214543 23 250 12.9 14.5 0.00 0.00 0.00 41 933.6
20260901214037 24 269 11.3 16.1 0.00 0.00 0.00 41 933.7
20260901213531 23 271 8.0 14.5 0.00 0.00 0.00 42 933.9
20260901213031 22 257 8.0 20.9 0.00 0.00 0.00 43 933.9
20260901212531 23 315 9.7 12.9 0.00 0.00 0.00 42 934.0
20260901212028 23 308 14.5 22.5 0.00 0.00 0.00 43 933.9
20260901211523 22 238 12.9 16.1 0.00 0.00 0.00 44 933.9
20260901211019 22 294 8.0 16.1 0.00 0.00 0.00 44 934.1
20260901210515 22 245 8.0 17.7 0.00 0.00 0.00 44 934.1
20260901210011 23 221 9.7 12.9 0.00 0.00 0.00 41 934.2
20260901205506 22 216 9.7 16.1 0.00 0.00 0.00 44 934.2
20260901205000 23 260 6.4 12.9 0.00 0.00 0.00 41 934.5
20260901204457 22 123 6.4 22.5 0.00 0.00 0.00 42 934.5
20260901203956 22 322 8.0 14.5 0.00 0.00 0.00 44 934.7
20260901203451 22 312 14.5 16.1 0.00 0.00 0.00 44 934.5
20260901202946 22 243 14.5 24.1 0.00 0.00 0.00 45 934.5
20260901202442 22 239 16.1 22.5 0.00 0.00 0.00 45 934.5
20260901201938 22 277 6.4 11.3 0.00 0.00 0.00 46 934.5
20260901201437 22 224 9.7 29.0 0.00 0.00 0.00 47 934.5
20260901200932 22 205 12.9 20.9 0.00 0.00 0.00 47 934.5
20260901200427 22 273 8.0 12.9 0.00 0.00 0.00 49 934.5
20260901195926 21 247 12.9 14.5 0.00 0.00 0.00 48 934.5
20260901195425 21 294 4.8 16.1 0.00 0.00 0.00 49 934.7
20260901194920 21 213 19.3 24.1 0.00 0.00 0.00 46 934.7
20260901194414 22 234 8.0 17.7 0.00 0.00 0.00 48 934.5
20260901193911 22 297 9.7 16.1 0.00 0.00 0.00 47 934.9
20260901193409 22 220 8.0 16.1 0.00 0.00 0.00 47 934.8
20260901192904 22 245 11.3 17.7 0.00 0.00 0.00 45 934.8
20260901192400 22 286 4.8 11.3 0.00 0.00 0.00 45 934.9
20260901191856 22 254 8.0 14.5 0.00 0.00 0.00 46 934.9
20260901191351 22 208 14.5 25.7 0.00 0.00 0.00 46 935.0
20260901190847 23 289 4.8 11.3 0.00 0.00 0.00 46 934.8
20260901190346 22 244 17.7 24.1 0.00 0.00 0.00 47 935.0
20260901185844 22 302 11.3 29.0 0.00 0.00 0.00 48 934.8
20260901185338 22 225 19.3 24.1 0.00 0.00 0.00 46 934.9